User: anonymous   Login
Location: Unspecified
(0.0000°N, 0.0000°E)
Time: 17:52:46
(UTC+00:00)
Language:

Asterix - Orbit

View from above orbital plane
View from above orbital plane
View from above satellite
View from above satellite

Ground track
Ground track

The orbit data is extracted from the following two-line orbital elements,

1 01778U 65096A   21105.89850258  .00000060  00000-0  13162-4 0  9996
2 01778  34.2606 348.5188 0751438 210.2112 145.3086 13.46997940709858
Epoch (UTC): 15 April 2021 21:33:50
Eccentricity: 0.0751438
inclination: 34.2606°
perigee height: 522 km
apogee height: 1644 km
right ascension of ascending node: 348.5188°
argument of perigee: 210.2112°
revolutions per day: 13.46997940
mean anomaly at epoch: 145.3086°
orbit number at epoch: 70985

The dashed part of the orbit path shows where the satellite is in the earth's shadow,  

DLR